TimeEDT,TemperatureF,Dew PointF,Humidity,Sea Level PressureIn,VisibilityMPH,Wind Direction,Wind SpeedMPH,Gust SpeedMPH,PrecipitationIn,Events,Conditions,WindDirDegrees,DateUTC
12:53 AM,69.1,55.0,61,30.21,10.0,South,6.9,-,N/A,,Clear,180,2013-05-27 04:53:00
1:53 AM,66.9,55.0,66,30.21,10.0,South,4.6,-,N/A,,Clear,170,2013-05-27 05:53:00
2:53 AM,64.9,54.0,68,30.21,10.0,South,3.5,-,N/A,,Clear,180,2013-05-27 06:53:00
3:53 AM,62.1,54.0,75,30.20,10.0,Calm,Calm,-,N/A,,Clear,0,2013-05-27 07:53:00
4:53 AM,61.0,54.0,78,30.20,10.0,Calm,Calm,-,N/A,,Clear,0,2013-05-27 08:53:00
5:53 AM,61.0,55.0,81,30.20,10.0,Calm,Calm,-,N/A,,Clear,0,2013-05-27 09:53:00
6:53 AM,60.1,54.0,80,30.22,10.0,Calm,Calm,-,N/A,,Clear,0,2013-05-27 10:53:00
7:53 AM,68.0,57.9,70,30.24,10.0,Calm,Calm,-,N/A,,Clear,0,2013-05-27 11:53:00
8:53 AM,75.0,59.0,57,30.25,10.0,South,6.9,-,N/A,,Clear,170,2013-05-27 12:53:00
9:53 AM,80.1,57.0,45,30.25,10.0,Calm,Calm,-,N/A,,Clear,0,2013-05-27 13:53:00
10:53 AM,82.9,55.0,38,30.25,10.0,Calm,Calm,-,N/A,,Clear,0,2013-05-27 14:53:00
11:53 AM,87.1,53.1,31,30.24,10.0,Calm,Calm,-,N/A,,Clear,0,2013-05-27 15:53:00
12:53 PM,88.0,53.1,30,30.22,10.0,ESE,5.8,-,N/A,,Clear,110,2013-05-27 16:53:00
1:53 PM,90.0,54.0,29,30.20,10.0,ESE,8.1,-,N/A,,Clear,110,2013-05-27 17:53:00
2:53 PM,91.0,53.1,27,30.19,10.0,Variable,4.6,-,N/A,,Partly Cloudy,0,2013-05-27 18:53:00
3:53 PM,91.9,52.0,26,30.16,10.0,South,8.1,-,N/A,,Clear,170,2013-05-27 19:53:00
4:53 PM,91.9,51.1,25,30.15,10.0,ESE,6.9,-,N/A,,Clear,120,2013-05-27 20:53:00
5:53 PM,89.1,52.0,28,30.14,10.0,SE,6.9,-,N/A,,Clear,140,2013-05-27 21:53:00
6:53 PM,89.1,52.0,28,30.13,10.0,SSE,8.1,-,N/A,,Clear,160,2013-05-27 22:53:00
7:53 PM,84.9,53.1,33,30.13,10.0,SE,6.9,-,N/A,,Clear,140,2013-05-27 23:53:00
8:53 PM,80.1,57.0,45,30.14,10.0,ESE,6.9,-,N/A,,Clear,110,2013-05-28 00:53:00
9:53 PM,79.0,60.1,52,30.17,10.0,ESE,5.8,-,N/A,,Clear,120,2013-05-28 01:53:00
10:53 PM,75.9,61.0,60,30.19,10.0,ESE,6.9,-,N/A,,Clear,110,2013-05-28 02:53:00
11:53 PM,73.9,61.0,64,30.20,10.0,ESE,6.9,-,N/A,,Clear,120,2013-05-28 03:53:00